Time,TemperatureF,DewpointF,PressureIn,WindDirection,WindDirectionDegrees,WindSpeedMPH,WindSpeedGustMPH,Humidity,HourlyPrecipIn,Conditions,Clouds,dailyrainin,SoftwareType,DateUTC
2013-02-23 00:00:00,43.3,36.9,30.02,NNW,329,0.0,0.0,78,0.00,OVC,,0.31,WeatherDisplay:10.37,2013-02-23 05:00:00,
2013-02-23 00:01:00,43.3,36.9,30.02,NNW,329,1.1,1.1,78,0.00,RA,,0.00,WeatherDisplay:10.37,2013-02-23 05:01:00,
2013-02-23 00:06:00,43.2,36.8,30.03,NNW,329,1.1,1.1,78,0.00,RA,,0.00,WeatherDisplay:10.37,2013-02-23 05:06:00,
2013-02-23 00:11:00,43.2,36.8,30.02,NNW,329,0.0,0.0,78,0.00,OVC,,0.00,WeatherDisplay:10.37,2013-02-23 05:11:00,
2013-02-23 00:16:00,43.1,36.7,30.03,NNW,329,0.0,0.0,78,0.00,OVC,,0.00,WeatherDisplay:10.37,2013-02-23 05:16:00,
2013-02-23 00:21:00,43.0,36.9,30.03,NNW,329,2.3,0.0,79,0.00,OVC,,0.00,WeatherDisplay:10.37,2013-02-23 05:21:00,
2013-02-23 00:26:00,42.9,36.8,30.03,NNW,329,1.0,0.0,79,0.00,OVC,,0.00,WeatherDisplay:10.37,2013-02-23 05:26:00,
2013-02-23 00:31:00,42.8,37.1,30.02,NNW,329,2.3,2.3,80,0.00,OVC,,0.00,WeatherDisplay:10.37,2013-02-23 05:31:00,
2013-02-23 00:36:00,42.7,37.0,30.02,NNW,329,0.0,0.0,80,0.00,OVC,,0.00,WeatherDisplay:10.37,2013-02-23 05:36:00,
2013-02-23 00:41:00,42.6,36.9,30.01,NNW,329,0.0,0.0,80,0.00,OVC,,0.00,WeatherDisplay:10.37,2013-02-23 05:41:00,
2013-02-23 00:46:00,42.5,36.8,30.02,NNW,329,1.1,1.1,80,0.00,OVC,,0.00,WeatherDisplay:10.37,2013-02-23 05:46:00,
2013-02-23 00:51:00,42.4,36.7,30.01,NNW,329,0.0,0.0,80,0.00,OVC,,0.00,WeatherDisplay:10.37,2013-02-23 05:51:00,
2013-02-23 00:56:00,42.3,36.9,30.02,NNW,329,2.3,2.3,81,0.00,OVC,,0.00,WeatherDisplay:10.37,2013-02-23 05:56:00,
2013-02-23 01:01:00,42.2,36.8,30.01,NNW,329,1.1,0.0,81,0.00,OVC,,0.00,WeatherDisplay:10.37,2013-02-23 06:01:00,
2013-02-23 01:06:00,42.2,36.8,30.01,NNW,329,2.3,2.3,81,0.00,OVC,,0.00,WeatherDisplay:10.37,2013-02-23 06:06:00,
2013-02-23 01:11:00,42.1,36.7,30.01,NNW,329,1.1,0.0,81,0.00,OVC,,0.00,WeatherDisplay:10.37,2013-02-23 06:11:00,
2013-02-23 01:16:00,42.0,36.6,30.01,NNW,329,2.3,2.3,81,0.00,OVC,,0.00,WeatherDisplay:10.37,2013-02-23 06:16:00,
2013-02-23 01:21:00,42.0,36.6,30.01,NNW,329,3.5,3.5,81,0.00,OVC,,0.00,WeatherDisplay:10.37,2013-02-23 06:21:00,
2013-02-23 01:27:00,41.8,36.4,30.01,NNW,329,3.5,3.5,81,0.00,OVC,,0.00,WeatherDisplay:10.37,2013-02-23 06:27:00,
2013-02-23 01:32:00,41.7,36.0,30.01,NNW,329,2.3,2.3,80,0.00,OVC,,0.00,WeatherDisplay:10.37,2013-02-23 06:32:00,
2013-02-23 01:37:00,41.6,35.9,30.02,NNW,329,1.1,1.1,80,0.00,OVC,,0.00,WeatherDisplay:10.37,2013-02-23 06:37:00,
2013-02-23 01:42:00,41.5,35.5,30.02,NNW,329,3.5,3.5,79,0.00,OVC,,0.00,WeatherDisplay:10.37,2013-02-23 06:42:00,
2013-02-23 01:47:00,41.3,35.3,30.02,NW,326,3.5,3.5,79,0.00,OVC,,0.00,WeatherDisplay:10.37,2013-02-23 06:47:00,
2013-02-23 01:52:00,41.1,35.1,30.02,NW,326,4.0,4.0,79,0.00,OVC,,0.00,WeatherDisplay:10.37,2013-02-23 06:52:00,
2013-02-23 01:57:00,41.1,35.1,30.02,NW,326,3.5,3.5,79,0.00,OVC,,0.00,WeatherDisplay:10.37,2013-02-23 06:57:00,
2013-02-23 02:02:00,41.0,34.7,30.02,NW,325,4.6,4.6,78,0.00,BKN,,0.00,WeatherDisplay:10.37,2013-02-23 07:02:00,
2013-02-23 02:07:00,40.9,34.6,30.02,NW,325,2.3,2.3,78,0.00,BKN,,0.00,WeatherDisplay:10.37,2013-02-23 07:07:00,
2013-02-23 02:12:00,40.9,34.9,30.02,NW,325,3.5,3.5,79,0.00,BKN,,0.00,WeatherDisplay:10.37,2013-02-23 07:12:00,
2013-02-23 02:17:00,40.8,34.8,30.02,NW,324,4.0,4.0,79,0.00,BKN,,0.00,WeatherDisplay:10.37,2013-02-23 07:17:00,
2013-02-23 02:22:00,40.7,34.7,30.02,NW,324,2.3,2.3,79,0.00,BKN,,0.00,WeatherDisplay:10.37,2013-02-23 07:22:00,
2013-02-23 02:27:00,40.5,34.5,30.02,NW,324,3.5,3.5,79,0.00,BKN,,0.00,WeatherDisplay:10.37,2013-02-23 07:27:00,
2013-02-23 02:32:00,40.4,34.4,30.02,NW,324,2.3,2.3,79,0.00,BKN,,0.00,WeatherDisplay:10.37,2013-02-23 07:32:00,
2013-02-23 02:37:00,40.3,34.3,30.02,NW,324,1.1,1.1,79,0.00,BKN,,0.00,WeatherDisplay:10.37,2013-02-23 07:37:00,
2013-02-23 02:42:00,40.1,33.8,30.02,NW,322,2.3,2.3,78,0.00,BKN,,0.00,WeatherDisplay:10.37,2013-02-23 07:42:00,
2013-02-23 02:47:00,40.0,33.7,30.01,NW,322,2.0,2.0,78,0.00,BKN,,0.00,WeatherDisplay:10.37,2013-02-23 07:47:00,
2013-02-23 02:52:00,39.9,33.6,30.02,NW,322,1.1,1.1,78,0.00,BKN,,0.00,WeatherDisplay:10.37,2013-02-23 07:52:00,
2013-02-23 02:57:00,39.8,33.8,30.02,NW,322,1.0,1.0,79,0.00,BKN,,0.00,WeatherDisplay:10.37,2013-02-23 07:57:00,
2013-02-23 03:02:00,39.8,33.8,30.01,NW,322,2.3,2.3,79,0.00,OVC,,0.00,WeatherDisplay:10.37,2013-02-23 08:02:00,
2013-02-23 03:07:00,39.6,33.6,30.02,WNW,293,5.0,5.0,79,0.00,OVC,,0.00,WeatherDisplay:10.37,2013-02-23 08:07:00,
2013-02-23 03:12:00,39.5,33.5,30.02,WNW,294,3.5,3.5,79,0.00,OVC,,0.00,WeatherDisplay:10.37,2013-02-23 08:12:00,
2013-02-23 03:17:00,39.4,33.4,30.02,WNW,286,5.8,5.8,79,0.00,OVC,,0.00,WeatherDisplay:10.37,2013-02-23 08:17:00,
2013-02-23 03:22:00,39.2,33.2,30.01,West,270,5.0,5.0,79,0.00,OVC,,0.00,WeatherDisplay:10.37,2013-02-23 08:22:00,
2013-02-23 03:27:00,39.2,33.5,30.01,West,270,5.0,5.0,80,0.00,OVC,,0.00,WeatherDisplay:10.37,2013-02-23 08:27:00,
2013-02-23 03:32:00,39.1,33.5,30.01,West,270,2.3,2.3,80,0.00,OVC,,0.00,WeatherDisplay:10.37,2013-02-23 08:32:00,
2013-02-23 03:37:00,39.0,33.4,30.01,West,270,2.3,2.3,80,0.00,OVC,,0.00,WeatherDisplay:10.37,2013-02-23 08:37:00,
2013-02-23 03:42:00,38.9,33.3,30.01,West,272,3.5,3.5,80,0.00,OVC,,0.00,WeatherDisplay:10.37,2013-02-23 08:42:00,
2013-02-23 03:47:00,38.7,33.1,30.00,WNW,282,4.0,4.0,80,0.00,OVC,,0.00,WeatherDisplay:10.37,2013-02-23 08:47:00,
2013-02-23 03:52:00,38.6,33.0,30.01,WNW,283,5.0,5.0,80,0.00,OVC,,0.00,WeatherDisplay:10.37,2013-02-23 08:52:00,
2013-02-23 03:57:00,38.4,33.1,30.01,WNW,284,2.3,2.3,81,0.00,OVC,,0.00,WeatherDisplay:10.37,2013-02-23 08:57:00,
2013-02-23 04:02:00,38.3,33.0,30.01,WNW,284,2.3,2.3,81,0.00,OVC,,0.00,WeatherDisplay:10.37,2013-02-23 09:02:00,
2013-02-23 04:08:00,38.1,32.8,30.00,WNW,288,3.5,3.5,81,0.00,OVC,,0.00,WeatherDisplay:10.37,2013-02-23 09:08:00,
2013-02-23 04:13:00,38.0,32.7,30.00,WNW,288,4.0,4.0,81,0.00,OVC,,0.00,WeatherDisplay:10.37,2013-02-23 09:13:00,
2013-02-23 04:18:00,37.8,32.5,30.00,WNW,289,3.5,3.5,81,0.00,OVC,,0.00,WeatherDisplay:10.37,2013-02-23 09:18:00,
2013-02-23 04:23:00,37.6,32.6,30.00,WNW,292,5.0,5.0,82,0.00,OVC,,0.00,WeatherDisplay:10.37,2013-02-23 09:23:00,
2013-02-23 04:28:00,37.4,32.4,30.00,WNW,293,4.0,4.0,82,0.00,OVC,,0.00,WeatherDisplay:10.37,2013-02-23 09:28:00,
2013-02-23 04:33:00,37.3,32.3,30.01,WNW,294,3.5,3.5,82,0.00,OVC,,0.00,WeatherDisplay:10.37,2013-02-23 09:33:00,
2013-02-23 04:38:00,37.2,32.2,30.01,WNW,294,2.0,2.0,82,0.00,OVC,,0.00,WeatherDisplay:10.37,2013-02-23 09:38:00,
2013-02-23 04:43:00,37.2,32.2,30.01,WNW,294,2.3,2.3,82,0.00,OVC,,0.00,WeatherDisplay:10.37,2013-02-23 09:43:00,
2013-02-23 04:48:00,37.0,32.0,30.01,WNW,294,4.0,4.0,82,0.00,OVC,,0.00,WeatherDisplay:10.37,2013-02-23 09:48:00,
2013-02-23 04:53:00,36.8,31.8,30.01,WNW,294,3.5,3.5,82,0.00,OVC,,0.00,WeatherDisplay:10.37,2013-02-23 09:53:00,
2013-02-23 04:58:00,36.6,31.6,30.01,WNW,295,2.3,2.3,82,0.00,OVC,,0.00,WeatherDisplay:10.37,2013-02-23 09:58:00,
2013-02-23 05:03:00,36.4,31.4,30.01,WNW,295,5.0,5.0,82,0.00,OVC,,0.00,WeatherDisplay:10.37,2013-02-23 10:03:00,
2013-02-23 05:08:00,36.1,31.1,30.00,WNW,303,4.0,4.0,82,0.00,OVC,,0.00,WeatherDisplay:10.37,2013-02-23 10:08:00,
2013-02-23 05:13:00,36.0,31.0,30.00,NW,304,3.5,3.5,82,0.00,OVC,,0.00,WeatherDisplay:10.37,2013-02-23 10:13:00,
2013-02-23 05:18:00,35.9,30.9,30.01,WNW,303,3.5,3.5,82,0.00,OVC,,0.00,WeatherDisplay:10.37,2013-02-23 10:18:00,
2013-02-23 05:23:00,35.8,30.8,30.00,WNW,303,2.0,2.0,82,0.00,OVC,,0.00,WeatherDisplay:10.37,2013-02-23 10:23:00,
2013-02-23 05:28:00,35.8,30.8,30.01,NW,304,2.3,2.3,82,0.00,OVC,,0.00,WeatherDisplay:10.37,2013-02-23 10:28:00,
2013-02-23 05:33:00,35.7,30.7,30.01,NW,304,0.0,0.0,82,0.00,OVC,,0.00,WeatherDisplay:10.37,2013-02-23 10:33:00,
2013-02-23 05:38:00,35.7,31.0,30.01,NW,304,3.5,3.5,83,0.00,OVC,,0.00,WeatherDisplay:10.37,2013-02-23 10:38:00,
2013-02-23 05:43:00,35.7,31.0,30.01,NW,304,3.0,3.0,83,0.00,OVC,,0.00,WeatherDisplay:10.37,2013-02-23 10:43:00,
2013-02-23 05:48:00,35.7,31.0,30.01,WNW,303,1.1,1.1,83,0.00,OVC,,0.00,WeatherDisplay:10.37,2013-02-23 10:48:00,
2013-02-23 05:53:00,35.7,31.0,30.02,WNW,303,5.0,5.0,83,0.00,OVC,,0.00,WeatherDisplay:10.37,2013-02-23 10:53:00,
2013-02-23 05:58:00,35.7,31.0,30.01,NW,304,3.5,3.5,83,0.00,OVC,,0.00,WeatherDisplay:10.37,2013-02-23 10:58:00,
2013-02-23 06:03:00,35.6,30.9,30.02,NW,305,2.3,2.3,83,0.00,OVC,,0.00,WeatherDisplay:10.37,2013-02-23 11:03:00,
2013-02-23 06:08:00,35.6,30.9,30.01,NW,305,2.3,2.3,83,0.00,OVC,,0.00,WeatherDisplay:10.37,2013-02-23 11:08:00,
2013-02-23 06:13:00,35.5,30.5,30.01,NW,305,2.0,2.0,82,0.00,OVC,,0.00,WeatherDisplay:10.37,2013-02-23 11:13:00,
2013-02-23 06:18:00,35.5,30.5,30.01,NW,305,3.5,3.5,82,0.00,OVC,,0.00,WeatherDisplay:10.37,2013-02-23 11:18:00,
2013-02-23 06:23:00,35.4,30.5,30.02,NW,305,5.0,5.0,82,0.00,OVC,,0.00,WeatherDisplay:10.37,2013-02-23 11:23:00,
2013-02-23 06:28:00,35.4,30.5,30.02,NW,306,3.5,3.5,82,0.00,OVC,,0.00,WeatherDisplay:10.37,2013-02-23 11:28:00,
2013-02-23 06:33:00,35.3,30.4,30.02,NW,308,2.0,2.0,82,0.00,OVC,,0.00,WeatherDisplay:10.37,2013-02-23 11:33:00,
2013-02-23 06:38:00,35.3,30.4,30.02,NW,307,1.1,1.1,82,0.00,OVC,,0.00,WeatherDisplay:10.37,2013-02-23 11:38:00,
2013-02-23 06:43:00,35.3,30.4,30.02,NW,307,2.3,2.3,82,0.00,OVC,,0.00,WeatherDisplay:10.37,2013-02-23 11:43:00,
2013-02-23 06:48:00,35.3,30.4,30.02,NW,308,4.0,4.0,82,0.00,OVC,,0.00,WeatherDisplay:10.37,2013-02-23 11:48:00,
2013-02-23 06:53:00,35.3,30.4,30.02,NW,308,3.0,3.0,82,0.00,OVC,,0.00,WeatherDisplay:10.37,2013-02-23 11:53:00,
2013-02-23 06:58:00,35.2,30.3,30.02,NW,307,2.3,2.3,82,0.00,OVC,,0.00,WeatherDisplay:10.37,2013-02-23 11:58:00,
2013-02-23 07:03:00,35.2,30.3,30.02,NW,308,2.3,2.3,82,0.00,OVC,,0.00,WeatherDisplay:10.37,2013-02-23 12:03:00,
2013-02-23 07:08:00,35.2,30.3,30.02,NW,308,2.3,2.3,82,0.00,OVC,,0.00,WeatherDisplay:10.37,2013-02-23 12:08:00,
2013-02-23 07:13:00,35.2,30.3,30.02,NW,308,2.3,2.3,82,0.00,OVC,,0.00,WeatherDisplay:10.37,2013-02-23 12:13:00,
2013-02-23 07:18:00,35.2,30.3,30.02,NW,309,2.3,2.3,82,0.00,OVC,,0.00,WeatherDisplay:10.37,2013-02-23 12:18:00,
2013-02-23 07:23:00,35.1,30.2,30.02,NW,309,2.3,2.3,82,0.00,OVC,,0.00,WeatherDisplay:10.37,2013-02-23 12:23:00,
2013-02-23 07:28:00,35.1,30.2,30.02,NW,309,2.3,2.3,82,0.00,OVC,,0.00,WeatherDisplay:10.37,2013-02-23 12:28:00,
2013-02-23 07:33:00,35.1,30.2,30.02,NW,309,2.3,2.3,82,0.00,OVC,,0.00,WeatherDisplay:10.37,2013-02-23 12:33:00,
2013-02-23 07:38:00,35.1,30.2,30.03,NW,309,3.0,3.0,82,0.00,OVC,,0.00,WeatherDisplay:10.37,2013-02-23 12:38:00,
2013-02-23 07:43:00,35.0,30.1,30.03,NW,309,3.5,3.5,82,0.00,OVC,,0.00,WeatherDisplay:10.37,2013-02-23 12:43:00,
2013-02-23 07:48:00,35.0,30.1,30.03,NW,309,3.5,3.5,82,0.00,OVC,,0.00,WeatherDisplay:10.37,2013-02-23 12:48:00,
2013-02-23 07:53:00,35.0,30.1,30.02,NW,309,2.0,2.0,82,0.00,OVC,,0.00,WeatherDisplay:10.37,2013-02-23 12:53:00,
2013-02-23 07:58:00,35.0,30.1,30.03,NW,309,2.0,2.0,82,0.00,OVC,,0.00,WeatherDisplay:10.37,2013-02-23 12:58:00,
2013-02-23 08:03:00,35.0,30.1,30.03,NW,309,3.5,3.5,82,0.00,OVC,,0.00,WeatherDisplay:10.37,2013-02-23 13:03:00,
2013-02-23 08:08:00,35.0,30.1,30.02,NW,310,5.0,5.0,82,0.00,OVC,,0.00,WeatherDisplay:10.37,2013-02-23 13:08:00,
2013-02-23 08:13:00,34.9,29.7,30.03,NW,311,5.0,5.0,81,0.00,OVC,,0.00,WeatherDisplay:10.37,2013-02-23 13:13:00,
2013-02-23 08:18:00,34.9,29.4,30.03,NW,322,3.5,3.5,80,0.00,OVC,,0.00,WeatherDisplay:10.37,2013-02-23 13:18:00,
2013-02-23 08:23:00,34.8,29.3,30.03,NW,322,3.5,3.5,80,0.00,OVC,,0.00,WeatherDisplay:10.37,2013-02-23 13:23:00,
2013-02-23 08:28:00,34.6,29.1,30.03,NNW,330,4.6,4.6,80,0.00,OVC,,0.00,WeatherDisplay:10.37,2013-02-23 13:28:00,
2013-02-23 08:33:00,34.4,28.6,30.03,NNW,332,3.5,3.5,79,0.00,OVC,,0.00,WeatherDisplay:10.37,2013-02-23 13:33:00,
2013-02-23 08:38:00,34.4,28.2,30.03,NNW,332,5.8,5.8,78,0.00,OVC,,0.00,WeatherDisplay:10.37,2013-02-23 13:38:00,
2013-02-23 08:43:00,34.4,28.2,30.03,NNW,343,5.0,5.0,78,0.00,OVC,,0.00,WeatherDisplay:10.37,2013-02-23 13:43:00,
2013-02-23 08:48:00,34.4,28.2,30.03,NNW,346,5.0,5.0,78,0.00,OVC,,0.00,WeatherDisplay:10.37,2013-02-23 13:48:00,
2013-02-23 08:53:00,34.4,27.9,30.04,NNW,347,5.0,5.0,77,0.00,OVC,,0.00,WeatherDisplay:10.37,2013-02-23 13:53:00,
2013-02-23 08:58:00,34.4,27.9,30.04,NNW,347,4.6,4.6,77,0.00,OVC,,0.00,WeatherDisplay:10.37,2013-02-23 13:58:00,
2013-02-23 09:03:00,34.4,27.9,30.03,North,351,4.0,4.0,77,0.00,OVC,,0.00,WeatherDisplay:10.37,2013-02-23 14:03:00,
2013-02-23 09:08:00,34.4,27.9,30.03,North,351,3.5,3.5,77,0.00,OVC,,0.00,WeatherDisplay:10.37,2013-02-23 14:08:00,
2013-02-23 09:13:00,34.4,27.6,30.03,North,350,4.6,4.6,76,0.00,OVC,,0.00,WeatherDisplay:10.37,2013-02-23 14:13:00,
2013-02-23 09:18:00,34.4,27.6,30.03,North,355,5.8,5.8,76,0.00,OVC,,0.00,WeatherDisplay:10.37,2013-02-23 14:18:00,
2013-02-23 09:23:00,34.4,27.6,30.03,North,353,4.0,4.0,76,0.00,OVC,,0.00,WeatherDisplay:10.37,2013-02-23 14:23:00,
2013-02-23 09:28:00,34.6,27.8,30.03,North,355,6.0,6.0,76,0.00,OVC,,0.00,WeatherDisplay:10.37,2013-02-23 14:28:00,
2013-02-23 09:33:00,34.6,27.5,30.03,North,356,4.0,4.0,75,0.00,OVC,,0.00,WeatherDisplay:10.37,2013-02-23 14:33:00,
2013-02-23 09:38:00,34.8,27.7,30.03,North,357,7.0,7.0,75,0.00,OVC,,0.00,WeatherDisplay:10.37,2013-02-23 14:38:00,
2013-02-23 09:43:00,34.9,27.1,30.03,NW,313,4.0,4.0,73,0.00,OVC,,0.00,WeatherDisplay:10.37,2013-02-23 14:43:00,
2013-02-23 09:48:00,34.8,27.4,30.03,NW,316,4.6,4.6,74,0.00,OVC,,0.00,WeatherDisplay:10.37,2013-02-23 14:48:00,
2013-02-23 09:53:00,35.2,27.4,30.03,NW,316,3.5,3.5,73,0.00,OVC,,0.00,WeatherDisplay:10.37,2013-02-23 14:53:00,
2013-02-23 09:58:00,35.4,27.3,30.03,West,264,9.0,9.0,72,0.00,OVC,,0.00,WeatherDisplay:10.37,2013-02-23 14:58:00,
2013-02-23 10:03:00,35.6,27.1,30.02,West,269,2.3,2.3,71,0.00,,,0.00,WeatherDisplay:10.37,2013-02-23 15:03:00,
2013-02-23 10:08:00,35.8,27.0,30.02,West,280,3.5,3.5,70,0.00,,,0.00,WeatherDisplay:10.37,2013-02-23 15:08:00,
2013-02-23 10:13:00,35.9,27.4,30.02,West,275,5.0,5.0,71,0.00,,,0.00,WeatherDisplay:10.37,2013-02-23 15:13:00,
2013-02-23 10:18:00,36.0,27.2,30.02,West,276,5.0,5.0,70,0.00,,,0.00,WeatherDisplay:10.37,2013-02-23 15:18:00,
2013-02-23 10:24:00,36.0,27.2,30.02,West,277,3.5,3.5,70,0.00,,,0.00,WeatherDisplay:10.37,2013-02-23 15:24:00,
2013-02-23 10:29:00,36.1,27.3,30.01,West,276,6.0,6.0,70,0.00,,,0.00,WeatherDisplay:10.37,2013-02-23 15:29:00,
2013-02-23 10:34:00,36.2,26.6,30.01,West,281,5.0,5.0,68,0.00,,,0.00,WeatherDisplay:10.37,2013-02-23 15:34:00,
2013-02-23 10:39:00,36.3,27.1,30.01,West,281,3.0,3.0,69,0.00,,,0.00,WeatherDisplay:10.37,2013-02-23 15:39:00,
2013-02-23 10:44:00,36.5,27.3,30.02,West,280,5.8,5.8,69,0.00,,,0.00,WeatherDisplay:10.37,2013-02-23 15:44:00,
2013-02-23 10:49:00,36.4,27.2,30.01,West,280,3.5,3.5,69,0.00,,,0.00,WeatherDisplay:10.37,2013-02-23 15:49:00,
2013-02-23 10:54:00,36.7,27.5,30.01,West,280,3.5,3.5,69,0.00,,,0.00,WeatherDisplay:10.37,2013-02-23 15:54:00,
2013-02-23 10:59:00,37.1,27.5,30.01,West,280,4.0,4.0,68,0.00,,,0.00,WeatherDisplay:10.37,2013-02-23 15:59:00,
2013-02-23 11:04:00,37.0,27.4,30.01,West,280,2.3,2.3,68,0.00,BKN,,0.00,WeatherDisplay:10.37,2013-02-23 16:04:00,
2013-02-23 11:09:00,37.0,27.1,30.01,WNW,284,4.0,4.0,67,0.00,BKN,,0.00,WeatherDisplay:10.37,2013-02-23 16:09:00,
2013-02-23 11:14:00,37.1,27.5,30.01,WNW,293,3.5,3.5,68,0.00,BKN,,0.00,WeatherDisplay:10.37,2013-02-23 16:14:00,
2013-02-23 11:19:00,37.2,27.2,30.01,WNW,293,4.0,4.0,67,0.00,BKN,,0.00,WeatherDisplay:10.37,2013-02-23 16:19:00,
2013-02-23 11:24:00,37.1,27.5,30.00,WNW,288,4.0,4.0,68,0.00,BKN,,0.00,WeatherDisplay:10.37,2013-02-23 16:24:00,
2013-02-23 11:29:00,37.1,27.5,30.00,WNW,288,6.0,6.0,68,0.00,BKN,,0.00,WeatherDisplay:10.37,2013-02-23 16:29:00,
2013-02-23 11:34:00,36.9,27.3,30.00,WNW,286,2.3,2.3,68,0.00,BKN,,0.00,WeatherDisplay:10.37,2013-02-23 16:34:00,
2013-02-23 11:39:00,37.0,27.8,30.00,WNW,286,3.5,3.5,69,0.00,BKN,,0.00,WeatherDisplay:10.37,2013-02-23 16:39:00,
2013-02-23 11:44:00,37.3,28.4,30.00,WNW,286,3.5,3.5,70,0.00,BKN,,0.00,WeatherDisplay:10.37,2013-02-23 16:44:00,
2013-02-23 11:49:00,37.5,28.6,30.01,WNW,288,2.3,2.3,70,0.00,BKN,,0.00,WeatherDisplay:10.37,2013-02-23 16:49:00,
2013-02-23 11:54:00,37.7,28.4,30.00,WNW,288,1.1,1.1,69,0.00,BKN,,0.00,WeatherDisplay:10.37,2013-02-23 16:54:00,
2013-02-23 11:59:00,38.0,28.7,30.01,WNW,289,1.1,1.1,69,0.00,BKN,,0.00,WeatherDisplay:10.37,2013-02-23 16:59:00,
2013-02-23 12:04:00,38.0,28.4,30.01,WNW,289,4.0,4.0,68,0.00,SCT,,0.00,WeatherDisplay:10.37,2013-02-23 17:04:00,
2013-02-23 12:09:00,37.9,28.3,30.01,WNW,289,0.0,0.0,68,0.00,SCT,,0.00,WeatherDisplay:10.37,2013-02-23 17:09:00,
2013-02-23 12:14:00,38.2,28.6,30.01,WNW,294,5.0,5.0,68,0.00,SCT,,0.00,WeatherDisplay:10.37,2013-02-23 17:14:00,
2013-02-23 12:19:00,38.3,28.3,30.01,WNW,295,3.5,3.5,67,0.00,SCT,,0.00,WeatherDisplay:10.37,2013-02-23 17:19:00,
2013-02-23 12:24:00,38.3,28.3,30.00,WNW,295,2.3,2.3,67,0.00,SCT,,0.00,WeatherDisplay:10.37,2013-02-23 17:24:00,
2013-02-23 12:29:00,38.6,28.6,30.00,WNW,296,4.0,4.0,67,0.00,SCT,,0.00,WeatherDisplay:10.37,2013-02-23 17:29:00,
2013-02-23 12:34:00,39.1,28.7,30.00,WNW,296,2.3,2.3,66,0.00,SCT,,0.00,WeatherDisplay:10.37,2013-02-23 17:34:00,
2013-02-23 12:39:00,39.5,28.3,30.00,WSW,256,3.5,3.5,64,0.00,SCT,,0.00,WeatherDisplay:10.37,2013-02-23 17:39:00,
2013-02-23 12:44:00,39.8,29.0,30.00,WSW,257,3.5,3.5,65,0.00,SCT,,0.00,WeatherDisplay:10.37,2013-02-23 17:44:00,
2013-02-23 12:49:00,39.8,28.6,29.99,West,259,3.5,3.5,64,0.00,SCT,,0.00,WeatherDisplay:10.37,2013-02-23 17:49:00,
2013-02-23 12:54:00,40.1,28.5,30.00,West,259,2.3,2.3,63,0.00,SCT,,0.00,WeatherDisplay:10.37,2013-02-23 17:54:00,
2013-02-23 12:59:00,40.7,28.7,29.99,West,262,4.0,4.0,62,0.00,SCT,,0.00,WeatherDisplay:10.37,2013-02-23 17:59:00,
2013-02-23 13:04:00,40.7,28.3,29.99,West,263,4.0,4.0,61,0.00,CLR,,0.00,WeatherDisplay:10.37,2013-02-23 18:04:00,
2013-02-23 13:09:00,41.0,29.0,29.99,West,263,4.0,4.0,62,0.00,CLR,,0.00,WeatherDisplay:10.37,2013-02-23 18:09:00,
2013-02-23 13:14:00,41.0,27.8,29.99,WSW,257,4.6,4.6,59,0.00,CLR,,0.00,WeatherDisplay:10.37,2013-02-23 18:14:00,
2013-02-23 13:19:00,40.9,28.1,29.98,West,271,6.0,6.0,60,0.00,CLR,,0.00,WeatherDisplay:10.37,2013-02-23 18:19:00,
2013-02-23 13:24:00,40.6,27.4,29.98,NW,310,5.0,5.0,59,0.00,CLR,,0.00,WeatherDisplay:10.37,2013-02-23 18:24:00,
2013-02-23 13:29:00,40.8,28.4,29.98,NW,309,3.0,3.0,61,0.00,CLR,,0.00,WeatherDisplay:10.37,2013-02-23 18:29:00,
2013-02-23 13:34:00,41.3,28.4,29.98,West,276,5.0,5.0,60,0.00,CLR,,0.00,WeatherDisplay:10.37,2013-02-23 18:34:00,
2013-02-23 13:39:00,41.6,28.3,29.97,West,277,2.0,2.0,59,0.00,CLR,,0.00,WeatherDisplay:10.37,2013-02-23 18:39:00,
2013-02-23 13:44:00,41.8,28.5,29.97,NW,306,5.0,5.0,59,0.00,CLR,,0.00,WeatherDisplay:10.37,2013-02-23 18:44:00,
2013-02-23 13:49:00,42.3,28.6,29.97,WNW,301,3.0,3.0,58,0.00,CLR,,0.00,WeatherDisplay:10.37,2013-02-23 18:49:00,
2013-02-23 13:54:00,43.0,28.4,29.96,WNW,291,6.0,6.0,56,0.00,CLR,,0.00,WeatherDisplay:10.37,2013-02-23 18:54:00,
2013-02-23 13:59:00,42.8,28.2,29.95,West,264,0.0,0.0,56,0.00,CLR,,0.00,WeatherDisplay:10.37,2013-02-23 18:59:00,
2013-02-23 14:04:00,43.1,28.0,29.95,West,264,3.5,0.0,55,0.00,CLR,,0.00,WeatherDisplay:10.37,2013-02-23 19:04:00,
2013-02-23 14:09:00,43.5,27.9,29.96,West,259,2.3,2.3,54,0.00,CLR,,0.00,WeatherDisplay:10.37,2013-02-23 19:09:00,
2013-02-23 14:14:00,43.9,28.3,29.95,WSW,258,4.0,4.0,54,0.00,CLR,,0.00,WeatherDisplay:10.37,2013-02-23 19:14:00,
2013-02-23 14:19:00,44.1,27.6,29.95,West,259,1.1,1.1,52,0.00,CLR,,0.00,WeatherDisplay:10.37,2013-02-23 19:19:00,
2013-02-23 14:24:00,44.1,28.0,29.96,West,259,4.0,4.0,53,0.00,CLR,,0.00,WeatherDisplay:10.37,2013-02-23 19:24:00,
2013-02-23 14:29:00,44.0,28.9,29.95,West,259,3.5,3.5,55,0.00,CLR,,0.00,WeatherDisplay:10.37,2013-02-23 19:29:00,
2013-02-23 14:34:00,44.4,28.8,29.95,West,259,3.5,3.5,54,0.00,CLR,,0.00,WeatherDisplay:10.37,2013-02-23 19:34:00,
2013-02-23 14:39:00,44.5,28.9,29.95,West,280,6.0,6.0,54,0.00,CLR,,0.00,WeatherDisplay:10.37,2013-02-23 19:39:00,
2013-02-23 14:44:00,44.7,28.1,29.95,WNW,282,3.5,3.5,52,0.00,CLR,,0.00,WeatherDisplay:10.37,2013-02-23 19:44:00,
2013-02-23 14:49:00,44.3,27.8,29.95,WNW,286,6.0,6.0,52,0.00,CLR,,0.00,WeatherDisplay:10.37,2013-02-23 19:49:00,
2013-02-23 14:54:00,45.0,28.4,29.95,WNW,286,3.5,3.5,52,0.00,CLR,,0.00,WeatherDisplay:10.37,2013-02-23 19:54:00,
2013-02-23 14:59:00,45.3,28.7,29.95,WNW,286,3.5,3.5,52,0.00,CLR,,0.00,WeatherDisplay:10.37,2013-02-23 19:59:00,
2013-02-23 15:04:00,45.5,28.4,29.95,SW,228,8.1,8.1,51,0.00,CLR,,0.00,WeatherDisplay:10.37,2013-02-23 20:04:00,
2013-02-23 15:09:00,45.0,27.5,29.95,WSW,237,11.0,11.0,50,0.00,CLR,,0.00,WeatherDisplay:10.37,2013-02-23 20:09:00,
2013-02-23 15:14:00,44.6,28.5,29.95,WSW,237,5.0,5.0,53,0.00,CLR,,0.00,WeatherDisplay:10.37,2013-02-23 20:14:00,
2013-02-23 15:19:00,44.6,28.5,29.95,WSW,238,3.5,3.5,53,0.00,CLR,,0.00,WeatherDisplay:10.37,2013-02-23 20:19:00,
2013-02-23 15:24:00,45.0,28.4,29.95,SW,233,9.2,9.2,52,0.00,CLR,,0.00,WeatherDisplay:10.37,2013-02-23 20:24:00,
2013-02-23 15:29:00,45.0,28.4,29.96,SW,231,3.5,3.5,52,0.00,CLR,,0.00,WeatherDisplay:10.37,2013-02-23 20:29:00,
2013-02-23 15:34:00,45.2,28.6,29.95,WNW,289,1.1,1.1,52,0.00,CLR,,0.00,WeatherDisplay:10.37,2013-02-23 20:34:00,
2013-02-23 15:39:00,45.6,29.0,29.96,WNW,286,4.0,4.0,52,0.00,CLR,,0.00,WeatherDisplay:10.37,2013-02-23 20:39:00,
2013-02-23 15:44:00,45.6,28.5,29.96,West,280,5.0,5.0,51,0.00,CLR,,0.00,WeatherDisplay:10.37,2013-02-23 20:44:00,
2013-02-23 15:49:00,45.6,29.0,29.95,West,279,5.8,5.8,52,0.00,CLR,,0.00,WeatherDisplay:10.37,2013-02-23 20:49:00,
2013-02-23 15:54:00,46.0,29.3,29.95,SW,233,8.0,8.0,52,0.00,CLR,,0.00,WeatherDisplay:10.37,2013-02-23 20:54:00,
2013-02-23 15:59:00,46.0,29.3,29.95,SW,230,5.8,5.8,52,0.00,CLR,,0.00,WeatherDisplay:10.37,2013-02-23 20:59:00,
2013-02-23 16:04:00,46.4,29.2,29.95,SW,214,3.5,3.5,51,0.00,CLR,,0.00,WeatherDisplay:10.37,2013-02-23 21:04:00,
2013-02-23 16:09:00,46.3,29.1,29.95,SW,222,4.6,4.6,51,0.00,CLR,,0.00,WeatherDisplay:10.37,2013-02-23 21:09:00,
2013-02-23 16:14:00,46.3,29.6,29.95,SW,222,3.0,3.0,52,0.00,CLR,,0.00,WeatherDisplay:10.37,2013-02-23 21:14:00,
2013-02-23 16:19:00,46.3,29.6,29.95,SW,224,0.0,0.0,52,0.00,CLR,,0.00,WeatherDisplay:10.37,2013-02-23 21:19:00,
2013-02-23 16:24:00,46.9,29.7,29.94,SW,224,2.0,2.0,51,0.00,CLR,,0.00,WeatherDisplay:10.37,2013-02-23 21:24:00,
2013-02-23 16:29:00,47.2,30.0,29.94,SW,224,2.3,2.3,51,0.00,CLR,,0.00,WeatherDisplay:10.37,2013-02-23 21:29:00,
2013-02-23 16:34:00,47.2,28.5,29.94,SW,224,2.3,2.3,48,0.00,CLR,,0.00,WeatherDisplay:10.37,2013-02-23 21:34:00,
2013-02-23 16:39:00,47.8,29.5,29.94,SW,224,1.1,1.1,49,0.00,CLR,,0.00,WeatherDisplay:10.37,2013-02-23 21:39:00,
2013-02-23 16:44:00,48.3,29.5,29.94,SW,224,1.1,0.0,48,0.00,CLR,,0.00,WeatherDisplay:10.37,2013-02-23 21:44:00,
2013-02-23 16:49:00,48.5,29.7,29.94,SW,224,0.0,0.0,48,0.00,CLR,,0.00,WeatherDisplay:10.37,2013-02-23 21:49:00,
2013-02-23 16:54:00,48.3,29.0,29.94,SW,226,4.0,4.0,47,0.00,CLR,,0.00,WeatherDisplay:10.37,2013-02-23 21:54:00,
2013-02-23 16:59:00,47.9,28.1,29.94,SW,225,1.1,1.1,46,0.00,CLR,,0.00,WeatherDisplay:10.37,2013-02-23 21:59:00,
2013-02-23 17:04:00,47.9,27.6,29.94,SW,225,4.0,4.0,45,0.00,CLR,,0.00,WeatherDisplay:10.37,2013-02-23 22:04:00,
2013-02-23 17:09:00,47.6,27.3,29.94,SW,226,2.3,2.3,45,0.00,CLR,,0.00,WeatherDisplay:10.37,2013-02-23 22:09:00,
2013-02-23 17:14:00,47.4,27.1,29.94,SW,226,1.1,0.0,45,0.00,CLR,,0.00,WeatherDisplay:10.37,2013-02-23 22:14:00,
2013-02-23 17:19:00,47.5,27.2,29.94,SW,226,4.0,4.0,45,0.00,CLR,,0.00,WeatherDisplay:10.37,2013-02-23 22:19:00,
2013-02-23 17:24:00,47.4,27.6,29.94,SW,226,2.0,2.0,46,0.00,CLR,,0.00,WeatherDisplay:10.37,2013-02-23 22:24:00,
2013-02-23 17:29:00,47.1,26.8,29.94,West,280,4.0,4.0,45,0.00,CLR,,0.00,WeatherDisplay:10.37,2013-02-23 22:29:00,
2013-02-23 17:34:00,46.5,26.8,29.94,West,280,2.3,2.3,46,0.00,CLR,,0.00,WeatherDisplay:10.37,2013-02-23 22:34:00,
2013-02-23 17:39:00,46.4,26.2,29.94,West,280,3.5,3.5,45,0.00,CLR,,0.00,WeatherDisplay:10.37,2013-02-23 22:39:00,
2013-02-23 17:44:00,46.3,26.6,29.94,West,280,3.5,3.5,46,0.00,CLR,,0.00,WeatherDisplay:10.37,2013-02-23 22:44:00,
2013-02-23 17:49:00,46.0,26.4,29.94,West,280,2.0,2.0,46,0.00,CLR,,0.00,WeatherDisplay:10.37,2013-02-23 22:49:00,
2013-02-23 17:54:00,45.8,26.2,29.94,West,280,2.3,2.3,46,0.00,CLR,,0.00,WeatherDisplay:10.37,2013-02-23 22:54:00,
2013-02-23 17:59:00,45.5,25.9,29.95,West,280,3.5,3.5,46,0.00,CLR,,0.00,WeatherDisplay:10.37,2013-02-23 22:59:00,
2013-02-23 18:04:00,45.3,26.2,29.94,West,280,3.5,0.0,47,0.00,CLR,,0.00,WeatherDisplay:10.37,2013-02-23 23:04:00,
2013-02-23 18:09:00,45.0,26.5,29.94,West,280,0.0,0.0,48,0.00,CLR,,0.00,WeatherDisplay:10.37,2013-02-23 23:09:00,
2013-02-23 18:14:00,44.5,26.0,29.94,West,280,0.0,0.0,48,0.00,CLR,,0.00,WeatherDisplay:10.37,2013-02-23 23:14:00,
2013-02-23 18:19:00,44.2,26.2,29.94,West,280,1.0,0.0,49,0.00,CLR,,0.00,WeatherDisplay:10.37,2013-02-23 23:19:00,
2013-02-23 18:24:00,43.8,26.3,29.94,West,280,2.3,0.0,50,0.00,CLR,,0.00,WeatherDisplay:10.37,2013-02-23 23:24:00,
2013-02-23 18:29:00,43.5,26.1,29.94,West,280,0.0,0.0,50,0.00,CLR,,0.00,WeatherDisplay:10.37,2013-02-23 23:29:00,
2013-02-23 18:34:00,43.3,26.4,29.94,West,280,0.0,0.0,51,0.00,CLR,,0.00,WeatherDisplay:10.37,2013-02-23 23:34:00,
2013-02-23 18:39:00,43.1,26.2,29.94,West,280,0.0,0.0,51,0.00,CLR,,0.00,WeatherDisplay:10.37,2013-02-23 23:39:00,
2013-02-23 18:44:00,42.9,26.0,29.94,West,280,0.0,0.0,51,0.00,CLR,,0.00,WeatherDisplay:10.37,2013-02-23 23:44:00,
2013-02-23 18:49:00,42.5,26.1,29.94,West,280,0.0,0.0,52,0.00,CLR,,0.00,WeatherDisplay:10.37,2013-02-23 23:49:00,
2013-02-23 18:54:00,42.2,25.8,29.94,West,280,0.0,0.0,52,0.00,CLR,,0.00,WeatherDisplay:10.37,2013-02-23 23:54:00,
2013-02-23 18:59:00,42.0,25.6,29.94,West,280,2.3,2.3,52,0.00,CLR,,0.00,WeatherDisplay:10.37,2013-02-23 23:59:00,
2013-02-23 19:04:00,41.8,25.4,29.94,West,280,1.0,0.0,52,0.00,CLR,,0.00,WeatherDisplay:10.37,2013-02-24 00:04:00,
2013-02-23 19:09:00,41.5,25.6,29.94,West,280,1.1,1.1,53,0.00,CLR,,0.00,WeatherDisplay:10.37,2013-02-24 00:09:00,
2013-02-23 19:14:00,41.2,25.3,29.94,West,280,1.1,1.1,53,0.00,CLR,,0.00,WeatherDisplay:10.37,2013-02-24 00:14:00,
2013-02-23 19:19:00,41.1,25.3,29.94,West,280,1.1,0.0,53,0.00,CLR,,0.00,WeatherDisplay:10.37,2013-02-24 00:19:00,
2013-02-23 19:24:00,40.9,25.1,29.94,West,280,1.1,1.1,53,0.00,CLR,,0.00,WeatherDisplay:10.37,2013-02-24 00:24:00,
2013-02-23 19:29:00,40.6,25.2,29.94,West,280,0.0,0.0,54,0.00,CLR,,0.00,WeatherDisplay:10.37,2013-02-24 00:29:00,
2013-02-23 19:34:00,40.3,25.0,29.94,West,280,1.1,0.0,54,0.00,CLR,,0.00,WeatherDisplay:10.37,2013-02-24 00:34:00,
2013-02-23 19:39:00,40.1,24.8,29.95,West,280,2.0,2.0,54,0.00,CLR,,0.00,WeatherDisplay:10.37,2013-02-24 00:39:00,
2013-02-23 19:44:00,40.0,24.7,29.95,West,280,2.3,2.3,54,0.00,CLR,,0.00,WeatherDisplay:10.37,2013-02-24 00:44:00,
2013-02-23 19:49:00,39.8,24.9,29.95,West,280,1.1,0.0,55,0.00,CLR,,0.00,WeatherDisplay:10.37,2013-02-24 00:49:00,
2013-02-23 19:54:00,39.6,24.7,29.95,West,280,1.0,1.0,55,0.00,CLR,,0.00,WeatherDisplay:10.37,2013-02-24 00:54:00,
2013-02-23 19:59:00,39.4,25.0,29.95,West,280,2.3,0.0,56,0.00,CLR,,0.00,WeatherDisplay:10.37,2013-02-24 00:59:00,
2013-02-23 20:04:00,39.2,24.8,29.95,West,280,2.0,2.0,56,0.00,CLR,,0.00,WeatherDisplay:10.37,2013-02-24 01:04:00,
2013-02-23 20:09:00,38.9,24.5,29.96,West,280,0.0,0.0,56,0.00,CLR,,0.00,WeatherDisplay:10.37,2013-02-24 01:09:00,
2013-02-23 20:14:00,38.7,24.8,29.95,West,280,1.1,0.0,57,0.00,CLR,,0.00,WeatherDisplay:10.37,2013-02-24 01:14:00,
2013-02-23 20:19:00,38.6,24.7,29.95,West,280,2.3,2.3,57,0.00,CLR,,0.00,WeatherDisplay:10.37,2013-02-24 01:19:00,
2013-02-23 20:24:00,38.3,24.4,29.95,West,280,2.3,2.3,57,0.00,CLR,,0.00,WeatherDisplay:10.37,2013-02-24 01:24:00,
2013-02-23 20:29:00,38.2,24.3,29.95,West,280,1.1,0.0,57,0.00,CLR,,0.00,WeatherDisplay:10.37,2013-02-24 01:29:00,
2013-02-23 20:34:00,38.0,24.1,29.95,West,280,1.0,1.0,57,0.00,CLR,,0.00,WeatherDisplay:10.37,2013-02-24 01:34:00,
2013-02-23 20:39:00,37.9,24.0,29.95,West,280,0.0,0.0,57,0.00,CLR,,0.00,WeatherDisplay:10.37,2013-02-24 01:39:00,
2013-02-23 20:44:00,37.8,23.9,29.95,West,280,0.0,0.0,57,0.00,CLR,,0.00,WeatherDisplay:10.37,2013-02-24 01:44:00,
2013-02-23 20:49:00,37.6,23.7,29.95,West,280,0.0,0.0,57,0.00,CLR,,0.00,WeatherDisplay:10.37,2013-02-24 01:49:00,
2013-02-23 20:54:00,37.4,24.0,29.96,West,280,0.0,0.0,58,0.00,CLR,,0.00,WeatherDisplay:10.37,2013-02-24 01:54:00,
2013-02-23 20:59:00,37.2,23.8,29.96,West,280,0.0,0.0,58,0.00,CLR,,0.00,WeatherDisplay:10.37,2013-02-24 01:59:00,
2013-02-23 21:04:00,37.0,24.0,29.96,West,280,0.0,0.0,59,0.00,CLR,,0.00,WeatherDisplay:10.37,2013-02-24 02:04:00,
2013-02-23 21:09:00,36.8,23.8,29.96,West,280,0.0,0.0,59,0.00,CLR,,0.00,WeatherDisplay:10.37,2013-02-24 02:09:00,
2013-02-23 21:14:00,36.6,23.6,29.96,West,280,0.0,0.0,59,0.00,CLR,,0.00,WeatherDisplay:10.37,2013-02-24 02:14:00,
2013-02-23 21:19:00,36.6,24.0,29.97,West,280,0.0,0.0,60,0.00,CLR,,0.00,WeatherDisplay:10.37,2013-02-24 02:19:00,
2013-02-23 21:24:00,36.7,24.1,29.97,West,280,0.0,0.0,60,0.00,CLR,,0.00,WeatherDisplay:10.37,2013-02-24 02:24:00,
2013-02-23 21:29:00,36.6,24.0,29.97,West,280,0.0,0.0,60,0.00,CLR,,0.00,WeatherDisplay:10.37,2013-02-24 02:29:00,
2013-02-23 21:34:00,36.5,23.5,29.97,West,280,1.1,0.0,59,0.00,CLR,,0.00,WeatherDisplay:10.37,2013-02-24 02:34:00,
2013-02-23 21:39:00,36.4,23.8,29.97,West,280,0.0,0.0,60,0.00,CLR,,0.00,WeatherDisplay:10.37,2013-02-24 02:39:00,
2013-02-23 21:44:00,36.4,23.8,29.98,West,280,2.3,2.3,60,0.00,CLR,,0.00,WeatherDisplay:10.37,2013-02-24 02:44:00,
2013-02-23 21:49:00,36.5,23.9,29.98,West,280,0.0,0.0,60,0.00,CLR,,0.00,WeatherDisplay:10.37,2013-02-24 02:49:00,
2013-02-23 21:54:00,36.4,23.8,29.98,West,280,3.0,3.0,60,0.00,CLR,,0.00,WeatherDisplay:10.37,2013-02-24 02:54:00,
2013-02-23 21:59:00,36.3,23.7,29.98,West,280,1.1,0.0,60,0.00,CLR,,0.00,WeatherDisplay:10.37,2013-02-24 02:59:00,
2013-02-23 22:04:00,36.0,23.8,29.98,West,280,2.3,2.3,61,0.00,CLR,,0.00,WeatherDisplay:10.37,2013-02-24 03:04:00,
2013-02-23 22:10:00,35.9,23.7,29.98,West,281,4.0,4.0,61,0.00,CLR,,0.00,WeatherDisplay:10.37,2013-02-24 03:10:00,
2013-02-23 22:15:00,36.0,23.8,29.99,West,281,3.5,3.5,61,0.00,CLR,,0.00,WeatherDisplay:10.37,2013-02-24 03:15:00,
2013-02-23 22:20:00,35.9,23.7,29.98,West,281,2.3,2.3,61,0.00,CLR,,0.00,WeatherDisplay:10.37,2013-02-24 03:20:00,
2013-02-23 22:25:00,35.8,23.7,29.98,West,281,3.5,3.5,61,0.00,CLR,,0.00,WeatherDisplay:10.37,2013-02-24 03:25:00,
2013-02-23 22:30:00,35.7,23.6,29.98,West,281,3.5,3.5,61,0.00,CLR,,0.00,WeatherDisplay:10.37,2013-02-24 03:30:00,
2013-02-23 22:35:00,35.6,23.5,29.99,West,280,1.1,1.1,61,0.00,CLR,,0.00,WeatherDisplay:10.37,2013-02-24 03:35:00,
2013-02-23 22:40:00,35.5,23.4,29.98,West,280,2.3,2.3,61,0.00,CLR,,0.00,WeatherDisplay:10.37,2013-02-24 03:40:00,
2013-02-23 22:45:00,35.4,23.7,29.99,West,280,3.5,3.5,62,0.00,CLR,,0.00,WeatherDisplay:10.37,2013-02-24 03:45:00,
2013-02-23 22:50:00,35.3,23.6,29.99,West,281,3.5,3.5,62,0.00,CLR,,0.00,WeatherDisplay:10.37,2013-02-24 03:50:00,
2013-02-23 22:55:00,35.0,23.3,29.99,West,281,2.3,2.3,62,0.00,CLR,,0.00,WeatherDisplay:10.37,2013-02-24 03:55:00,
2013-02-23 23:00:00,34.9,23.2,29.99,West,280,2.3,2.3,62,0.00,CLR,,0.00,WeatherDisplay:10.37,2013-02-24 04:00:00,
2013-02-23 23:05:00,34.6,23.3,30.00,West,281,3.0,3.0,63,0.00,CLR,,0.00,WeatherDisplay:10.37,2013-02-24 04:05:00,
2013-02-23 23:10:00,34.4,23.1,30.00,WNW,282,5.0,5.0,63,0.00,CLR,,0.00,WeatherDisplay:10.37,2013-02-24 04:10:00,
2013-02-23 23:15:00,34.4,23.1,30.00,WNW,283,2.3,2.3,63,0.00,CLR,,0.00,WeatherDisplay:10.37,2013-02-24 04:15:00,
2013-02-23 23:20:00,34.2,22.9,30.00,WNW,283,3.5,3.5,63,0.00,CLR,,0.00,WeatherDisplay:10.37,2013-02-24 04:20:00,
2013-02-23 23:25:00,34.0,23.1,30.00,WNW,284,3.5,3.5,64,0.00,CLR,,0.00,WeatherDisplay:10.37,2013-02-24 04:25:00,
2013-02-23 23:30:00,33.9,23.0,30.00,WNW,283,3.5,3.5,64,0.00,CLR,,0.00,WeatherDisplay:10.37,2013-02-24 04:30:00,
2013-02-23 23:35:00,33.5,23.0,30.00,WNW,284,3.5,3.5,65,0.00,CLR,,0.00,WeatherDisplay:10.37,2013-02-24 04:35:00,
2013-02-23 23:40:00,33.4,22.9,30.00,WNW,284,1.1,0.0,65,0.00,CLR,,0.00,WeatherDisplay:10.37,2013-02-24 04:40:00,
2013-02-23 23:45:00,33.2,22.7,29.99,WNW,284,0.0,0.0,65,0.00,CLR,,0.00,WeatherDisplay:10.37,2013-02-24 04:45:00,
2013-02-23 23:50:00,33.1,23.0,29.99,WNW,283,1.1,0.0,66,0.00,CLR,,0.00,WeatherDisplay:10.37,2013-02-24 04:50:00,
2013-02-23 23:55:00,32.9,22.8,29.99,WNW,283,0.0,0.0,66,0.00,CLR,,0.00,WeatherDisplay:10.37,2013-02-24 04:55:00,